Kahului, HI

7:58 AM HST on February 08, 2016 (GMT -1000)
Kahului

Weather History for PHOG - February, 2015

Change the Weather History Date:

Wednesday, February 25, 2015

  Actual Average Record
Temperature  
Mean Temperature 74 °F 72 °F  
Max Temperature 83 °F 81 °F 88 °F (1952)
Min Temperature 65 °F 63 °F 56 °F (1971)
Degree Days  
Heating Degree Days 0 0  
Month to date heating degree days 0 0  
Since 1 July heating degree days 0 0  
Cooling Degree Days 9 7  
Month to date cooling degree days 193 175  
Year to date cooling degree days 374 392  
Growing Degree Days 23 (Base 50)    
Moisture  
Dew Point 62 °F    
Average Humidity 63    
Maximum Humidity 79    
Minimum Humidity 46    
Precipitation  
Precipitation 0.00 in 0.07 in 2.71 in (1990)
Month to date precipitation 1.25 1.69  
Year to date precipitation 2.37 4.56  
Snow  
Snow 0.00 in - - ()
Month to date snowfall 0.0  
Since 1 July snowfall 0.0  
Snow Depth 0.00 in    
Sea Level Pressure  
Sea Level Pressure 29.98 in    
Wind  
Wind Speed 13 mph (ENE)    
Max Wind Speed 26 mph    
Max Gust Speed 35 mph    
Visibility 10 miles    
Events      
T = Trace of Precipitation, MM = Missing Value Source: NWS Daily Summary

Daily Weather History Graph

Daily Weather History Graph

Search for Another Location

Airport or City:

Trip Planner

Search our weather history database for the weather conditions in past years. The results will help you decide how hot, cold, wet, or windy it might be!

Date:

Astronomy

Feb. 25, 2015 Rise Set
Actual Time 6:49 AM HST 6:28 PM HST
Civil Twilight 6:26 AM HST 6:51 PM HST
Nautical Twilight 6:00 AM HST 7:16 PM HST
Astronomical Twilight 5:35 AM HST 7:42 PM HST
Moon 12:10 PM HST (2/25) 12:39 AM HST (2/25)
Length of Visible Light 12h 24m
Length of Day
11h 39m
First Quarter, 52% of the Moon is Illuminated
Feb 25
First Quarter
Mar 5
Full
Mar 13
Last Quarter
Mar 19
New
Mar 26
First Quarter

Hourly Weather History & Observations

Time (HST) Temp. Heat Index Dew Point Humidity Pressure Visibility Wind Dir Wind Speed Gust Speed Precip Events Conditions
12:54 AM 73.0 °F - 62.1 °F 68% 30.02 in 10.0 mi NE 9.2 mph - N/A   Mostly Cloudy
1:54 AM 72.0 °F - 61.0 °F 68% 30.01 in 10.0 mi ENE 10.4 mph - N/A   Clear
2:54 AM 70.0 °F - 61.0 °F 73% 30.01 in 10.0 mi NE 8.1 mph - N/A   Clear
3:54 AM 68.0 °F - 61.0 °F 78% 30.00 in 10.0 mi SE 4.6 mph - N/A   Clear
4:54 AM 66.0 °F - 59.0 °F 78% 29.99 in 10.0 mi Calm Calm - N/A   Clear
5:30 AM 66.2 °F - 57.2 °F 73% 29.98 in 10.0 mi ESE 10.4 mph - N/A   Clear
5:54 AM 69.1 °F - 59.0 °F 70% 30.00 in 10.0 mi NE 5.8 mph - N/A   Clear
6:54 AM 71.1 °F - 62.1 °F 73% 30.02 in 10.0 mi NNE 5.8 mph - N/A   Partly Cloudy
7:54 AM 73.0 °F - 63.0 °F 71% 30.03 in 10.0 mi ENE 11.5 mph 18.4 mph N/A   Scattered Clouds
8:54 AM 75.0 °F - 64.0 °F 69% 30.03 in 10.0 mi NE 15.0 mph 21.9 mph N/A   Scattered Clouds
9:54 AM 75.0 °F - 64.9 °F 71% 30.04 in 10.0 mi NE 18.4 mph - N/A   Scattered Clouds
10:54 AM 78.1 °F - 60.1 °F 54% 30.02 in 10.0 mi ENE 20.7 mph 29.9 mph N/A   Scattered Clouds
11:54 AM 82.0 °F 82.1 °F 59.0 °F 45% 30.00 in 10.0 mi NE 19.6 mph 29.9 mph N/A   Scattered Clouds
12:54 PM 82.9 °F 83.7 °F 62.1 °F 49% 29.96 in 10.0 mi ENE 18.4 mph 29.9 mph N/A   Scattered Clouds
1:54 PM 82.9 °F 84.0 °F 63.0 °F 51% 29.94 in 10.0 mi ENE 19.6 mph 33.4 mph N/A   Scattered Clouds
2:54 PM 81.0 °F 81.7 °F 61.0 °F 50% 29.93 in 10.0 mi ENE 16.1 mph 25.3 mph N/A   Scattered Clouds
3:54 PM 80.1 °F 81.1 °F 61.0 °F 52% 29.93 in 10.0 mi NE 17.3 mph 27.6 mph N/A   Scattered Clouds
4:54 PM 78.1 °F - 60.1 °F 54% 29.92 in 10.0 mi ENE 19.6 mph 28.8 mph N/A   Scattered Clouds
5:54 PM 75.9 °F - 62.1 °F 62% 29.92 in 10.0 mi NE 21.9 mph 28.8 mph N/A   Scattered Clouds
6:54 PM 73.9 °F - 63.0 °F 68% 29.93 in 10.0 mi ENE 16.1 mph 24.2 mph N/A   Partly Cloudy
7:54 PM 73.9 °F - 64.9 °F 73% 29.95 in 10.0 mi NE 19.6 mph 24.2 mph N/A   Clear
8:54 PM 73.9 °F - 64.9 °F 73% 29.98 in 10.0 mi ENE 9.2 mph - N/A   Scattered Clouds
9:54 PM 73.0 °F - 66.9 °F 81% 30.00 in 10.0 mi ENE 10.4 mph - N/A   Scattered Clouds
10:54 PM 73.0 °F - 66.9 °F 81% 29.99 in 10.0 mi NE 6.9 mph - N/A   Mostly Cloudy
11:54 PM 72.0 °F - 68.0 °F 87% 29.99 in 9.0 mi NE 10.4 mph - N/A   Mostly Cloudy